Location: Splawn
(30.9202°N, 96.9858°W)
Time: 18:58:48
(UTC+00:00)

Courier 1B - All Passes

Search period start: 16 February 2020 00:00
Search period end: 26 February 2020 00:00
Orbit: 962 x 1209 km, 28.3° (Epoch: 16 February)

Date Brightness Start Highest point End Pass type
(mag) Time Alt. Az. Time Alt. Az. Time Alt. Az.
16 Feb - 00:18:20 10° WSW 00:25:16 53° SSE 00:31:48 10° E daylight
16 Feb - 02:12:21 10° W 02:19:13 72° S 02:25:45 10° E visible
16 Feb - 04:06:38 10° W 04:13:06 56° SSW 04:19:24 10° ESE visible
16 Feb - 06:01:26 10° W 06:06:38 26° SSW 06:11:50 10° SSE night (unlit)
16 Feb - 21:32:41 10° SSW 21:37:48 20° SSE 21:42:44 10° ESE daylight
16 Feb - 23:24:35 10° SW 23:31:30 46° SSE 23:38:02 10° E daylight
17 Feb - 01:18:25 10° WSW 01:25:27 71° S 01:32:04 10° E visible
17 Feb - 03:12:43 10° W 03:19:25 63° S 03:25:50 10° ESE visible
17 Feb - 05:07:18 10° W 05:13:03 33° SSW 05:18:43 10° SE night (unlit)
17 Feb - 07:05:48 10° SW 07:06:22 10° SSW 07:06:56 10° SSW night (unlit)
17 Feb - 20:40:09 10° S 20:44:04 15° SSE 20:47:53 10° ESE daylight
17 Feb - 22:30:56 10° SW 22:37:44 38° SSE 22:44:11 10° E daylight
18 Feb - 00:24:29 10° WSW 00:31:40 66° S 00:38:23 10° E daylight
18 Feb - 02:18:47 10° W 02:25:41 69° S 02:32:14 10° ESE visible
18 Feb - 04:13:15 10° W 04:19:27 41° SSW 04:25:28 10° SE visible
18 Feb - 06:09:18 10° WSW 06:12:48 15° SSW 06:16:17 10° S night (unlit)
18 Feb - 19:49:18 10° SSE 19:50:18 10° SSE 19:51:18 10° SE daylight
18 Feb - 21:37:26 10° SW 21:43:58 32° SSE 21:50:12 10° E daylight
18 Feb - 23:30:34 10° WSW 23:37:51 60° SSE 23:44:40 10° E daylight
19 Feb - 01:24:49 10° W 01:31:55 72° S 01:38:35 10° E visible
19 Feb - 03:19:15 10° W 03:25:48 50° SSW 03:32:04 10° ESE visible
19 Feb - 05:14:33 10° WSW 05:19:15 21° SSW 05:23:53 10° SSE night (unlit)
19 Feb - 20:44:08 10° SSW 20:50:11 25° SSE 20:56:02 10° ESE daylight
19 Feb - 22:36:43 10° WSW 22:44:01 53° SSE 22:50:55 10° E daylight
20 Feb - 00:30:49 10° W 00:38:06 73° S 00:44:55 10° E visible
20 Feb - 02:25:15 10° W 02:32:06 58° SSW 02:38:35 10° ESE visible
20 Feb - 04:20:09 10° W 04:25:41 27° SSW 04:31:03 10° SSE visible
20 Feb - 19:51:09 10° SSW 19:56:24 20° SSE 20:01:33 10° ESE daylight
20 Feb - 21:42:56 10° SW 21:50:11 46° SSE 21:57:04 10° E daylight
20 Feb - 23:36:49 10° WSW 23:44:15 71° S 23:51:13 10° E daylight
21 Feb - 01:31:15 10° W 01:38:21 66° S 01:45:01 10° ESE visible
21 Feb - 03:25:57 10° W 03:32:05 35° SSW 03:37:58 10° SE visible
21 Feb - 05:23:30 10° SW 05:25:22 11° SSW 05:27:12 10° SSW night (unlit)
21 Feb - 18:58:44 10° S 19:02:39 14° SSE 19:06:31 10° ESE daylight
21 Feb - 20:49:17 10° SW 20:56:21 38° SSE 21:03:08 10° E daylight
21 Feb - 22:42:49 10° WSW 22:50:23 66° S 22:57:29 10° E daylight
22 Feb - 00:37:13 10° W 00:44:32 71° S 00:51:24 10° ESE visible
22 Feb - 02:31:49 10° W 02:38:26 44° SSW 02:44:41 10° SE visible
22 Feb - 04:27:47 10° WSW 04:31:48 17° SSW 04:35:44 10° S visible
22 Feb - 19:55:50 10° SW 20:02:32 31° SSE 20:09:02 10° E daylight
22 Feb - 21:48:53 10° WSW 21:56:29 60° SSE 22:03:42 10° E daylight
22 Feb - 23:43:10 10° W 23:50:41 74° S 23:57:44 10° E daylight
23 Feb - 01:37:44 10° W 01:44:43 53° SSW 01:51:17 10° ESE visible
23 Feb - 03:33:02 10° WSW 03:38:14 23° SSW 03:43:15 10° SSE visible
23 Feb - 19:02:38 10° SSW 19:08:43 25° SSE 19:14:44 10° E daylight
23 Feb - 20:55:02 10° WSW 21:02:35 53° SSE 21:09:51 10° E daylight
23 Feb - 22:49:07 10° W 22:56:47 74° S 23:04:00 10° E daylight
24 Feb - 00:43:39 10° W 00:50:57 61° SSW 00:57:46 10° ESE visible
24 Feb - 02:38:36 10° W 02:44:38 30° SSW 02:50:22 10° SSE visible
24 Feb - 18:09:47 10° SSW 18:14:56 19° SSE 18:20:03 10° ESE daylight
24 Feb - 20:01:19 10° SW 20:08:42 45° SSE 20:15:54 10° E daylight
24 Feb - 21:55:06 10° WSW 22:02:51 71° S 22:10:13 10° E daylight
24 Feb - 23:49:34 10° W 23:57:06 68° S 00:04:09 10° ESE daylight
25 Feb - 01:44:20 10° W 01:50:58 38° SSW 01:57:14 10° SE visible
25 Feb - 03:41:21 10° WSW 03:44:19 13° SSW 03:47:13 10° S visible
25 Feb - 17:17:37 10° S 17:21:10 14° SSE 17:24:43 10° ESE daylight
25 Feb - 19:07:45 10° SW 19:14:50 37° SSE 19:21:50 10° E daylight
25 Feb - 21:01:08 10° WSW 21:08:54 66° S 21:16:23 10° E daylight
25 Feb - 22:55:30 10° W 23:03:12 72° S 23:10:28 10° ESE daylight
